Temperature
12 12 12 12 12 12 12 12 12 12 12 13 12 12 12 12 12 12 12 12 12 12 11 11 11 11 10 11 10 10 10 10 10 10 10 10 10 9 9 9 9 8 8
12 12 12 12 12 12 12 12 12 12 12 12 12 12 12 12 12 12 12 12 12 11 11 11 11 11 10 10 10 10 10 10 10 10 10 10 9 9 9 9 8 8 8
11 11 11 11 11 11 11 11 11 11 11 11 12 12 12 11 11 11 11 11 11 11 11 11 11 11 10 10 10 10 10 10 10 10 10 9 9 9 9 8 8 8 8
11 11 11 10 11 11 11 11 11 11 11 11 11 11 11 11 11 11 11 11 11 11 11 11 11 11 10 10 10 10 10 10 10 9 9 9 9 9 8 8 8 8 8
10 10 10 10 10 10 10 10 10 10 10 10 10 11 11 11 11 11 11 11 11 11 11 11 11 10 10 10 10 10 10 9 9 9 9 9 9 8 8 8 8 8 8
9 9 9 9 9 9 9 9 9 10 10 10 10 10 10 10 10 10 10 10 10 10 10 10 10 10 10 10 10 9 9 9 9 9 9 9 8 8 8 8 8 8 7
8 9 9 9 9 9 9 9 9 9 9 9 9 9 9 10 10 10 10 10 10 10 10 10 10 10 10 10 10 9 9 9 9 9 9 8 8 8 8 7 7 7 7
8 8 8 8 8 8 8 8 9 8 8 9 9 9 9 9 9 10 10 10 10 10 10 10 10 10 10 9 9 9 9 9 9 9 8 8 8 8 8 7 7 7 7
7 7 7 8 8 8 8 8 8 8 8 8 9 9 9 9 9 9 9 10 9 10 10 10 10 10 10 9 9 9 9 9 9 9 8 8 8 8 7 7 7 7 6
7 7 7 7 7 7 7 8 8 8 8 8 8 9 9 9 9 9 9 9 9 9 9 10 9 9 9 9 9 9 9 9 9 9 8 8 8 8 7 7 7 6 6
6 6 6 7 7 7 7 7 7 7 8 8 8 8 9 9 9 9 9 9 9 9 9 9 9 9 9 9 9 9 9 9 9 9 8 8 8 8 7 7 7 6 6
6 6 6 6 6 6 6 7 7 7 7 7 8 8 8 8 9 9 9 8 8 9 9 9 9 9 9 9 9 9 9 9 9 8 8 8 8 7 7 7 6 6 5
5 6 6 6 6 6 6 6 7 7 7 7 7 7 7 8 9 9 9 8 8 8 8 9 9 9 9 9 9 9 9 9 8 8 8 8 8 7 7 6 6 6 5
5 5 5 6 6 6 6 6 7 7 7 7 7 7 7 8 8 9 9 9 8 8 8 8 8 9 8 8 9 9 8 8 8 8 8 8 7 7 7 6 6 5 5
5 5 5 5 5 6 6 6 6 6 7 7 7 7 7 7 8 8 9 9 8 8 8 8 8 8 8 9 9 8 8 8 8 8 8 7 7 7 6 6 5 5 5
4 4 5 5 5 5 5 6 6 6 6 6 7 7 7 7 8 8 8 8 9 9 8 8 8 8 9 8 8 8 8 8 8 8 7 7 7 6 6 5 5 5 4
4 4 4 4 5 5 5 5 6 6 6 6 6 6 7 7 7 8 8 8 8 8 8 8 8 8 8 8 8 8 8 7 7 7 7 7 6 6 6 5 5 4 4
4 4 4 4 5 5 5 5 5 6 6 6 6 6 7 7 7 7 8 8 8 8 9 8 8 8 8 8 8 8 8 7 7 7 7 6 6 6 5 5 4 4 3
3 4 4 4 5 5 5 5 5 6 6 6 6 6 6 7 7 7 7 8 8 8 8 8 8 8 8 8 8 7 7 7 7 6 6 6 5 5 5 4 4 3 3
3 4 4 4 5 5 5 5 5 5 5 6 6 6 6 6 7 7 7 7 8 8 8 8 8 7 7 7 7 7 7 7 6 6 6 5 5 5 4 4 4 3 3
3 3 4 4 4 5 5 5 5 5 5 5 6 6 6 6 7 7 7 7 7 8 8 8 7 7 7 7 7 7 7 6 6 6 5 5 5 4 4 3 3 3 2
3 3 4 4 4 5 5 5 5 5 5 5 5 6 6 6 7 7 7 7 8 8 8 8 7 7 7 7 7 7 6 6 5 5 5 5 4 4 4 3 3 2 2
3 3 3 4 4 5 5 5 5 5 5 5 5 6 6 6 7 7 7 7 7 7 8 8 8 8 8 7 7 6 6 6 5 5 5 4 4 4 3 3 2 2 1
3 3 3 4 4 4 5 5 5 5 5 5 5 6 6 6 6 7 7 7 7 7 7 8 8 8 8 7 7 7 6 5 5 5 4 4 4 3 3 2 2 1 1
3 3 3 3 4 4 4 5 5 4 5 5 5 6 6 6 6 6 6 6 7 7 7 7 7 7 7 7 6 6 5 5 4 4 4 3 3 3 2 2 1 1 0
2 3 3 3 3 4 4 4 4 4 4 5 5 5 6 6 6 6 7 7 6 6 6 6 6 6 6 6 6 5 5 5 4 4 3 3 3 2 2 1 1 0 -0
Wind_Speed
4 4 4 5 5 5 6 7 7 9 9 10 11 12 13 13 12 11 11 15 16 16 16 16 16 15 14 13 12 11 10 9 7 6 5 4 3 2 1 1 2 4 5
4 4 5 5 5 6 6 7 8 8 8 8 10 12 12 13 13 13 12 14 16 16 16 17 16 16 15 14 13 11 10 9 8 6 5 4 3 2 1 1 3 4 5
5 4 5 5 5 6 7 7 8 8 7 8 11 11 10 11 12 13 12 12 14 16 16 17 17 17 16 15 14 12 11 10 9 7 6 5 3 2 2 2 3 5 6
6 5 4 5 6 6 6 6 7 7 8 8 9 9 9 9 12 12 12 12 12 13 15 16 16 17 16 15 14 13 12 11 10 8 7 6 4 3 3 3 4 5 6
7 6 5 6 6 5 5 7 7 8 8 8 8 8 8 9 10 11 12 13 12 12 12 14 15 15 15 15 15 14 13 12 10 9 8 6 5 4 4 4 5 5 6
8 8 6 7 7 6 6 7 8 8 8 7 7 7 7 8 9 11 12 11 11 12 12 13 14 13 14 14 14 14 14 12 11 10 9 7 6 5 5 5 5 6 5
8 8 7 7 7 8 9 9 7 9 8 7 6 5 5 7 9 10 10 10 11 12 12 13 12 12 12 14 14 14 14 13 12 11 10 9 7 6 6 5 5 5 5
9 8 8 8 9 8 10 10 9 8 8 8 7 7 4 5 7 9 10 11 12 11 11 12 13 12 11 11 12 14 14 13 13 12 11 10 8 8 7 6 5 5 6
11 10 11 9 10 10 10 11 11 11 10 10 10 8 6 6 5 7 10 11 12 11 11 12 12 13 13 11 12 14 14 13 13 12 12 11 9 9 7 6 5 5 6
12 12 11 11 11 11 11 12 12 11 12 11 10 10 9 5 6 5 8 10 12 13 12 11 12 12 13 12 11 12 14 13 12 12 11 10 9 8 7 6 5 5 5
13 13 12 11 12 11 13 13 12 12 12 12 11 9 9 8 9 7 8 10 9 10 11 11 11 11 13 13 12 13 14 13 13 11 11 10 9 8 7 6 5 5 5
11 14 13 12 13 12 13 13 13 15 13 14 11 11 10 9 10 9 9 12 10 8 10 10 10 10 11 12 13 14 15 14 13 12 11 9 9 8 7 6 5 5 6
11 13 13 13 13 13 13 13 14 14 15 15 14 12 12 10 9 8 9 10 9 5 7 8 9 10 10 11 11 14 15 15 13 12 11 9 8 7 6 5 5 5 5
12 13 14 14 14 14 14 14 13 14 14 15 15 14 11 11 9 9 9 9 8 6 7 7 8 10 9 11 11 15 13 15 14 12 11 10 8 7 6 5 4 4 5
12 13 14 14 14 14 14 14 13 15 14 15 15 15 12 10 10 9 8 10 9 8 9 8 7 9 9 9 12 13 12 14 14 13 12 10 9 8 6 5 4 4 4
13 13 13 14 14 15 14 14 13 14 15 14 12 14 14 11 10 8 8 9 9 8 7 7 6 7 9 8 10 11 11 13 13 13 12 11 10 8 7 6 5 4 4
12 13 13 14 14 15 14 14 14 15 16 15 14 15 15 13 10 9 9 9 8 8 7 5 4 7 9 10 9 9 9 10 10 12 12 11 10 9 7 6 6 5 5
12 12 13 13 14 14 14 15 16 15 16 16 15 15 15 12 13 11 10 10 9 8 8 8 6 6 8 10 9 9 8 8 8 11 11 11 10 9 8 7 6 5 4
12 12 12 12 13 13 14 15 15 15 15 15 15 15 16 15 14 11 12 10 8 7 8 8 7 5 5 7 8 7 7 6 6 8 10 10 9 9 8 6 6 5 4
11 11 11 11 11 12 14 14 14 14 14 14 14 15 16 16 15 14 12 12 10 9 9 9 8 7 6 7 7 7 6 5 5 6 6 7 8 8 8 7 6 5 4
10 10 9 9 10 10 11 12 12 12 13 13 13 15 16 16 16 14 12 12 12 10 9 9 8 7 7 8 8 6 7 6 5 4 5 5 6 5 6 7 6 5 4
9 8 7 8 9 8 10 12 11 11 11 12 12 13 14 14 14 15 15 15 14 14 12 10 8 10 10 9 9 8 7 6 4 5 5 4 4 4 4 4 4 5 4
8 8 7 7 8 7 10 12 11 10 11 11 11 11 10 11 13 12 13 13 12 13 13 12 12 11 11 11 11 11 9 7 4 5 5 4 3 3 3 4 6 5 4
7 7 7 6 6 7 9 10 9 9 9 10 11 12 12 12 11 12 12 12 11 11 11 10 10 10 10 11 10 9 9 6 5 4 4 3 3 2 2 3 5 5 4
6 6 6 6 6 6 7 7 7 6 7 8 9 10 12 12 13 14 13 12 10 8 7 8 8 9 12 13 12 9 9 6 4 3 3 2 2 1 1 2 3 4 3
6 6 6 6 5 5 5 6 5 5 6 6 7 9 12 13 15 15 14 13 13 10 10 9 9 10 10 12 12 9 9 8 5 4 4 3 3 2 2 1 1 2 3
Wind_Direction
253 240 233 220 219 216 214 214 215 213 210 204 201 200 198 197 194 191 182 183 193 195 193 189 184 183 181 179 174 173 168 165 163 159 159 158 151 134 98 25 1 353 347
249 245 238 229 223 222 220 220 220 215 212 208 204 203 201 200 200 195 189 185 191 197 198 194 190 189 188 184 180 179 176 173 172 173 177 180 183 194 227 328 334 334 335
247 244 245 236 226 224 224 222 222 218 211 210 207 205 203 202 202 199 193 191 192 197 199 199 196 193 191 189 186 184 181 180 181 185 190 194 203 206 235 294 312 322 325
247 243 240 242 228 221 221 222 220 218 212 208 208 205 203 200 202 201 197 197 195 195 196 197 197 194 194 194 192 188 186 187 189 192 198 206 210 221 250 278 299 309 318
249 247 239 242 229 221 222 224 220 217 213 210 209 207 204 203 200 201 201 200 198 194 193 189 192 195 196 197 196 194 192 191 194 198 205 212 214 228 250 275 292 303 311
252 247 240 240 234 225 220 222 222 216 216 210 207 210 208 207 205 203 201 198 198 196 194 190 191 193 194 198 199 199 197 196 199 203 209 212 215 227 248 270 285 295 302
252 246 242 235 232 229 222 220 222 216 212 203 205 209 215 212 213 207 202 199 200 197 196 195 195 194 194 197 200 201 203 202 204 206 211 210 218 229 242 261 278 286 296
247 244 242 236 230 231 227 220 216 220 216 203 204 195 204 212 216 213 205 203 201 197 199 198 197 196 195 197 196 199 204 206 208 210 210 212 220 227 238 251 266 281 296
248 243 239 238 234 229 226 220 214 216 214 213 210 206 200 210 192 205 208 205 201 199 199 198 200 199 197 198 195 196 201 209 212 212 212 213 219 228 237 246 264 280 294
249 244 239 234 234 233 227 221 219 218 213 213 215 223 226 210 194 191 203 206 204 204 202 197 200 200 198 200 197 192 193 203 211 215 214 216 222 229 237 244 260 272 291
247 242 238 234 231 234 232 225 221 219 215 216 216 216 220 218 212 201 200 198 203 207 205 201 200 200 200 201 201 194 189 196 204 211 215 217 222 228 234 240 253 271 287
246 240 238 235 232 232 233 228 221 219 220 221 220 218 215 209 205 206 203 198 201 203 201 202 201 200 199 199 197 186 187 195 202 206 208 213 219 225 232 240 248 270 286
248 240 238 236 234 231 231 230 223 221 221 221 220 220 222 220 215 209 202 198 200 200 200 205 204 198 197 198 194 183 190 195 198 200 200 203 210 219 228 233 248 268 287
247 246 239 237 235 232 230 229 224 223 221 222 221 221 224 220 216 213 204 197 196 205 205 202 198 198 196 197 191 183 193 192 195 194 194 194 197 203 213 224 241 263 285
248 246 243 238 235 232 230 228 222 221 220 220 220 220 221 219 214 216 209 202 199 204 210 205 194 192 190 192 181 189 192 187 190 189 188 188 187 192 201 216 233 254 275
252 247 248 239 234 232 229 230 225 220 218 219 218 218 216 216 212 210 208 210 210 205 213 204 200 184 177 182 181 186 188 178 184 188 188 187 188 191 197 207 220 243 267
258 250 247 244 236 230 228 229 224 219 218 218 215 216 214 210 208 207 206 207 209 201 200 202 193 181 178 182 176 181 183 185 185 185 187 188 191 191 196 205 218 237 259
259 252 248 247 239 230 228 229 222 218 218 215 213 213 212 206 205 205 203 203 203 199 192 188 187 175 184 181 177 177 177 182 182 176 182 187 189 191 196 206 218 234 256
263 258 250 247 241 232 228 229 221 217 217 214 212 212 209 203 203 203 200 200 197 190 182 180 183 174 167 169 167 168 170 171 169 171 177 184 187 192 198 204 214 227 243
273 265 254 248 242 235 229 227 221 217 215 214 213 212 208 205 203 200 198 196 191 184 175 171 171 167 162 165 165 168 170 173 171 171 177 183 188 194 200 203 210 215 224
277 271 259 251 244 234 225 222 218 215 214 213 213 210 208 205 203 200 196 191 187 184 178 173 175 171 170 169 178 175 175 165 168 174 175 179 184 194 200 202 201 205 217
280 276 264 260 248 235 227 223 221 213 212 212 211 206 203 199 197 195 196 193 191 188 184 182 186 183 185 181 174 169 162 164 178 173 175 184 185 196 194 192 192 203 213
280 275 271 269 254 245 225 216 221 215 212 214 207 199 198 197 193 191 186 183 193 194 192 191 189 188 185 180 173 171 173 173 169 156 164 178 187 200 186 186 183 196 210
274 276 275 271 259 245 222 213 216 215 212 213 204 196 194 193 192 184 180 185 192 193 191 192 193 187 178 170 172 170 160 133 103 136 163 169 176 191 180 184 179 193 202
280 280 275 272 262 247 225 216 222 212 211 212 201 195 189 187 179 172 175 178 177 176 159 150 151 148 144 148 150 144 147 148 149 161 174 156 150 156 183 188 172 183 193
277 279 278 277 262 245 231 222 232 212 210 207 193 187 182 180 176 174 176 174 173 171 159 147 138 133 141 142 146 158 163 163 152 161 170 155 148 148 161 180 177 185 181
Height
1472 1473 1474 1475 1476 1478 1480 1481 1483 1485 1486 1488 1490 1492 1494 1496 1498 1500 1502 1504 1506 1508 1510 1512 1513 1515 1516 1516 1517 1517 1518 1519 1519 1519 1519 1519 1519 1518 1518 1517 1516 1515 1514
1468 1468 1468 1470 1471 1473 1475 1477 1479 1480 1482 1484 1486 1488 1490 1493 1494 1496 1498 1501 1503 1505 1508 1510 1511 1513 1514 1515 1515 1516 1516 1517 1518 1518 1518 1518 1518 1517 1517 1516 1515 1514 1512
1463 1464 1464 1464 1465 1468 1470 1472 1474 1476 1477 1479 1481 1483 1486 1488 1490 1492 1495 1497 1499 1502 1504 1506 1508 1510 1511 1513 1513 1514 1515 1515 1516 1516 1517 1516 1516 1516 1515 1514 1513 1512 1511
1458 1458 1459 1459 1460 1462 1464 1466 1469 1470 1472 1475 1477 1478 1481 1483 1486 1488 1491 1493 1495 1498 1500 1503 1505 1507 1508 1510 1511 1512 1512 1513 1514 1514 1515 1515 1514 1514 1513 1513 1512 1510 1509
1452 1453 1453 1454 1455 1456 1458 1461 1463 1465 1467 1469 1472 1474 1476 1478 1481 1483 1486 1489 1491 1494 1496 1498 1501 1503 1505 1507 1508 1509 1510 1510 1511 1512 1512 1512 1512 1512 1511 1511 1510 1508 1507
1447 1447 1448 1449 1449 1450 1452 1455 1457 1460 1463 1465 1467 1469 1471 1474 1476 1479 1481 1484 1487 1490 1492 1494 1497 1499 1502 1503 1505 1506 1507 1508 1509 1509 1510 1510 1510 1510 1509 1508 1507 1506 1504
1441 1441 1442 1443 1444 1445 1446 1449 1452 1454 1457 1460 1463 1465 1467 1469 1472 1474 1476 1479 1482 1485 1488 1490 1493 1495 1497 1499 1501 1503 1504 1505 1506 1507 1507 1507 1507 1507 1507 1506 1505 1503 1502
1435 1435 1436 1437 1438 1439 1441 1443 1445 1449 1451 1454 1457 1460 1462 1466 1466 1469 1471 1473 1477 1480 1482 1485 1488 1490 1493 1495 1497 1499 1500 1502 1503 1504 1504 1504 1504 1504 1504 1503 1502 1500 1499
1428 1429 1429 1430 1431 1433 1434 1436 1439 1442 1445 1448 1451 1454 1456 1456 1460 1463 1465 1468 1471 1474 1477 1480 1483 1485 1488 1491 1492 1494 1497 1498 1500 1500 1501 1501 1501 1501 1501 1500 1498 1497 1496
1421 1422 1422 1423 1425 1426 1427 1429 1432 1435 1438 1441 1444 1447 1450 1450 1453 1456 1460 1462 1465 1468 1471 1474 1477 1480 1483 1486 1488 1490 1492 1494 1496 1497 1498 1498 1498 1498 1497 1496 1495 1494 1492
1414 1414 1415 1416 1417 1419 1420 1422 1425 1428 1431 1434 1437 1439 1442 1445 1447 1449 1452 1457 1460 1463 1466 1469 1472 1475 1478 1481 1483 1485 1488 1490 1491 1492 1494 1494 1495 1494 1494 1493 1492 1490 1489
1406 1406 1407 1408 1410 1411 1413 1415 1418 1421 1424 1428 1431 1433 1435 1437 1440 1443 1446 1449 1454 1457 1461 1464 1467 1469 1472 1475 1478 1480 1483 1485 1487 1488 1490 1491 1491 1490 1490 1489 1488 1487 1485
1397 1397 1399 1400 1402 1404 1406 1408 1410 1413 1417 1420 1423 1426 1429 1432 1435 1438 1440 1444 1449 1452 1455 1458 1461 1464 1467 1470 1473 1475 1478 1481 1483 1484 1485 1486 1487 1486 1486 1485 1484 1483 1481
1388 1390 1391 1392 1394 1396 1398 1400 1403 1406 1409 1413 1416 1420 1423 1426 1429 1432 1435 1438 1443 1446 1449 1451 1454 1458 1461 1465 1468 1471 1473 1476 1478 1479 1481 1482 1482 1482 1482 1481 1480 1479 1477
1380 1381 1382 1384 1386 1388 1390 1393 1395 1398 1401 1405 1408 1412 1416 1419 1423 1426 1429 1433 1435 1438 1442 1445 1448 1451 1456 1459 1462 1466 1468 1471 1473 1475 1476 1477 1477 1477 1477 1477 1476 1475 1473
1372 1373 1374 1375 1377 1380 1382 1385 1387 1390 1394 1397 1401 1405 1409 1412 1416 1419 1423 1427 1430 1433 1435 1438 1441 1445 1449 1454 1457 1460 1463 1466 1468 1470 1471 1472 1473 1473 1473 1473 1472 1471 1469
1364 1365 1365 1367 1369 1371 1374 1377 1379 1382 1386 1390 1394 1398 1401 1406 1409 1413 1417 1421 1424 1427 1429 1432 1436 1440 1444 1449 1453 1455 1458 1461 1463 1465 1466 1467 1468 1469 1469 1468 1468 1467 1465
1357 1357 1358 1359 1360 1363 1366 1369 1371 1374 1378 1382 1385 1390 1394 1399 1403 1407 1411 1414 1418 1421 1424 1427 1431 1435 1438 1443 1447 1450 1453 1456 1458 1460 1461 1463 1464 1464 1464 1464 1463 1462 1461
1350 1350 1350 1351 1352 1355 1358 1361 1364 1367 1371 1374 1378 1382 1387 1392 1396 1401 1404 1408 1412 1416 1419 1423 1425 1430 1433 1438 1442 1445 1448 1451 1453 1455 1457 1458 1459 1459 1459 1459 1459 1458 1457
1344 1343 1343 1343 1345 1347 1350 1353 1356 1360 1363 1367 1371 1375 1380 1385 1389 1393 1398 1402 1406 1410 1414 1417 1421 1425 1428 1432 1437 1440 1443 1446 1449 1451 1452 1453 1454 1455 1455 1455 1454 1454 1453
1339 1338 1337 1337 1338 1340 1343 1346 1349 1352 1356 1359 1363 1367 1372 1377 1382 1387 1391 1395 1400 1404 1408 1412 1416 1419 1423 1427 1431 1434 1438 1441 1444 1446 1447 1448 1450 1450 1450 1450 1450 1449 1449
1334 1333 1332 1332 1333 1335 1338 1340 1343 1346 1349 1352 1355 1359 1365 1370 1375 1380 1385 1389 1394 1399 1403 1407 1410 1414 1418 1422 1426 1429 1433 1436 1438 1441 1443 1444 1445 1446 1446 1446 1446 1446 1445
1330 1329 1328 1328 1328 1330 1332 1335 1337 1339 1342 1345 1348 1352 1357 1363 1368 1374 1379 1384 1389 1394 1399 1402 1405 1408 1413 1417 1420 1424 1428 1431 1433 1435 1438 1440 1441 1442 1442 1442 1442 1442 1441
1327 1325 1325 1325 1324 1325 1327 1329 1331 1334 1336 1339 1342 1346 1351 1356 1361 1367 1372 1378 1383 1388 1393 1397 1401 1405 1410 1413 1417 1420 1423 1426 1429 1432 1435 1436 1437 1438 1438 1438 1439 1438 1438
1324 1322 1322 1321 1321 1321 1323 1324 1327 1328 1330 1333 1336 1341 1345 1350 1356 1361 1367 1372 1377 1383 1388 1393 1397 1401 1405 1409 1412 1416 1418 1422 1424 1427 1430 1431 1432 1434 1434 1435 1435 1435 1434
1321 1320 1319 1318 1318 1317 1319 1320 1322 1323 1325 1327 1331 1335 1340 1345 1351 1357 1361 1366 1371 1376 1382 1387 1392 1397 1401 1404 1408 1411 1414 1417 1420 1423 1425 1427 1428 1430 1431 1431 1432 1432 1431